パンスターズ彗星

C/2014 OE4 ( PanSTARRS )

English version
Home page
Updated on May 20, 2019

---------------------------------------------------------------------

・ プロフィール

発見日 2014年7月26日
発見光度 20.7等
発見者 Pan-STARRS 1 telescope (Haleakala)

・ 写真集

・ 軌道要素

Epoch 2016 Nov. 28.0 TT = JDT 2457720.5
T 2016 Dec. 10.74953 TT                                 MPCW
q   6.2443050            (2000.0)            P               Q
z  +0.0000868      Peri.   65.74339     -0.08368201     +0.50406412
 +/-0.0000001      Node   240.40004     -0.74841500     +0.53775540
e   0.9994578      Incl.   81.34886     +0.65793032     +0.67582431
From 1661 observations 2014 May 8-2019 Mar. 22, mean residual 0".4.

・ 光度変化

        m1 = -4.0 + 5 logΔ + 20 log r(t - 250)

---------------------------------------------------------------------

軌道要素はM.P.E.C. 2019-J142に掲載されたものです。
光度グラフはComet for Windowsで作成したものです。

---------------------------------------------------------------------

Copyright(C) Seiichi Yoshida (comet@aerith.net). All rights reserved.